GW3913 Weather Reports


Display with metric or nautical units.
time (UTC)temp
F
wind
direction
speed
MPH
gust
MPH
rain 1hr
in
rain 24hr
in
rain mn
in
humidity
%
barometer
mb
20260505223937 59 79 3.0 6.0 0.00 0.00 0.00 61 1015.8
20260505223433 60 104 5.0 6.0 0.00 0.00 0.00 55 1016.2
20260505222930 59 125 3.0 5.0 0.00 0.00 0.00 63 1016.1
20260505222426 57 181 0.0 3.0 0.00 0.00 0.00 70 1016.7
20260505221922 56 127 0.0 5.0 0.00 0.00 0.00 75 1016.4
20260505221420 56 79 1.0 2.0 0.00 0.00 0.00 75 1016.4
20260505220917 55 211 5.0 8.0 0.00 0.00 0.00 75 1016.3
20260505220414 54 168 7.0 13.0 0.00 0.00 0.00 74 1016.8
20260505215911 55 155 1.0 6.0 0.00 0.00 0.00 76 1017.0
20260505215409 55 179 4.0 13.0 0.00 0.00 0.00 69 1016.9
20260505214907 59 38 1.0 10.0 0.00 0.00 0.00 54 1016.9
20260505214404 60 247 4.0 8.0 0.00 0.00 0.00 52 1016.9
20260505213901 60 154 2.0 6.0 0.00 0.00 0.00 49 1016.8
20260505213359 61 220 3.0 10.0 0.00 0.00 0.00 46 1016.7
20260505212855 62 303 4.0 6.0 0.00 0.00 0.00 44 1016.6
20260505212352 62 159 1.0 5.0 0.00 0.00 0.00 45 1016.7
20260505211848 61 295 2.0 8.0 0.00 0.00 0.00 46 1016.8
20260505211346 62 338 2.0 5.0 0.00 0.00 0.00 45 1017.0
20260505210842 62 112 0.0 5.0 0.00 0.00 0.00 45 1016.8
20260505210339 63 201 7.0 10.0 0.00 0.00 0.00 44 1016.9
20260505205836 63 50 0.0 2.0 0.00 0.00 0.00 45 1016.8
20260505205334 62 149 2.0 3.0 0.00 0.00 0.00 47 1016.9
20260505204831 61 351 3.0 5.0 0.00 0.00 0.00 47 1016.9
20260505204329 61 335 3.0 8.0 0.00 0.00 0.00 48 1016.9
20260505203826 61 104 2.0 5.0 0.00 0.00 0.00 49 1017.3
20260505203322 61 356 3.0 6.0 0.00 0.00 0.00 48 1017.3
20260505202819 61 31 0.0 2.0 0.00 0.00 0.00 48 1017.3
20260505202315 62 264 3.0 6.0 0.00 0.00 0.00 47 1017.0
20260505201812 61 324 2.0 3.0 0.00 0.00 0.00 47 1017.3
20260505201309 60 1 2.0 8.0 0.00 0.00 0.00 50 1017.3
20260505200807 60 13 3.0 8.0 0.00 0.00 0.00 50 1017.4
20260505200304 59 309 2.0 5.0 0.00 0.00 0.00 52 1017.4
20260505195759 59 284 5.0 6.0 0.00 0.00 0.00 52 1017.5
20260505195257 59 229 5.0 8.0 0.00 0.00 0.00 52 1017.5
20260505194754 59 217 3.0 5.0 0.00 0.00 0.00 56 1017.5
20260505194251 58 291 1.0 8.0 0.00 0.00 0.00 56 1017.4
20260505193746 60 47 0.0 2.0 0.00 0.00 0.00 55 1017.7
20260505193244 59 57 0.0 3.0 0.00 0.00 0.00 56 1017.7
20260505192742 60 68 1.0 5.0 0.00 0.00 0.00 55 1017.7
20260505192240 59 284 4.0 6.0 0.00 0.00 0.00 59 1017.9
20260505191737 57 112 0.0 6.0 0.00 0.00 0.00 63 1017.9
20260505191236 58 223 6.0 10.0 0.00 0.00 0.00 60 1018.1
20260505190731 56 181 3.0 5.0 0.00 0.00 0.00 69 1018.0
20260505190226 56 162 3.0 10.0 0.02 0.00 0.00 72 1017.9
20260505185722 55 209 6.0 8.0 0.02 0.00 0.00 73 1018.0
20260505185219 55 183 5.0 6.0 0.00 0.00 0.00 73 1018.0
20260505184715 55 128 2.0 6.0 0.00 0.00 0.00 73 1018.2
20260505184213 56 201 6.0 10.0 0.00 0.00 0.00 69 1018.0
20260505183709 57 217 3.0 8.0 0.00 0.00 0.00 61 1017.9
20260505183207 59 345 5.0 11.0 0.00 0.00 0.00 55 1017.9
20260505182702 58 191 5.0 8.0 0.00 0.00 0.00 52 1017.5
20260505182200 58 237 3.0 13.0 0.00 0.00 0.00 58 1017.6
20260505181656 59 190 7.0 10.0 0.00 0.00 0.00 59 1018.0
20260505181154 61 254 4.0 10.0 0.00 0.00 0.00 59 1017.7
20260505180650 61 125 5.0 8.0 0.00 0.00 0.00 43 1017.7
20260505180147 62 251 5.0 8.0 0.00 0.00 0.00 42 1017.7
20260505175643 64 154 2.0 6.0 0.00 0.00 0.00 40 1017.9
20260505175139 64 141 2.0 3.0 0.00 0.00 0.00 39 1017.6
20260505174636 64 232 3.0 8.0 0.00 0.00 0.00 39 1017.6
20260505174132 63 10 2.0 8.0 0.00 0.00 0.00 40 1017.7
20260505173624 63 30 1.0 6.0 0.00 0.00 0.00 40 1017.6
20260505173120 62 58 0.0 2.0 0.00 0.00 0.00 41 1017.4
20260505172618 61 95 3.0 6.0 0.00 0.00 0.00 43 1017.7
20260505172114 60 92 5.0 6.0 0.00 0.00 0.00 43 1017.6
20260505171609 61 348 3.0 3.0 0.00 0.00 0.00 41 1017.6
20260505171106 59 25 2.0 5.0 0.00 0.00 0.00 44 1017.7
20260505170603 59 77 2.0 3.0 0.00 0.00 0.00 46 1018.0
20260505170100 60 13 2.0 6.0 0.00 0.00 0.00 43 1018.3
20260505165554 59 76 0.0 2.0 0.00 0.00 0.00 44 1018.0
20260505165051 58 22 3.0 5.0 0.00 0.00 0.00 44 1017.9
20260505164547 57 314 3.0 5.0 0.00 0.00 0.00 46 1017.7
20260505164045 56 299 2.0 5.0 0.00 0.00 0.00 48 1017.7
20260505163543 57 21 1.0 8.0 0.00 0.00 0.00 47 1018.1
20260505163039 56 41 0.0 5.0 0.00 0.00 0.00 48 1017.9
20260505162532 56 19 2.0 5.0 0.00 0.00 0.00 49 1018.1
20260505162030 55 89 0.0 2.0 0.00 0.00 0.00 51 1018.2
20260505161526 54 19 2.0 6.0 0.00 0.00 0.00 52 1018.3
20260505161023 54 12 2.0 11.0 0.00 0.00 0.00 52 1018.6
20260505160521 54 8 5.0 6.0 0.00 0.00 0.00 55 1018.3
20260505152957 55 340 2.0 8.0 0.00 0.00 0.00 56 1018.7
20260505152455 55 29 5.0 10.0 0.00 0.00 0.00 56 1018.7
20260505151950 54 340 5.0 8.0 0.00 0.00 0.00 56 1018.7
20260505151445 54 10 5.0 8.0 0.00 0.00 0.00 58 1018.9
20260505150942 54 344 3.0 6.0 0.00 0.00 0.00 60 1018.8
20260505150434 54 25 4.0 10.0 0.00 0.00 0.00 60 1018.7
20260505140404 54 41 4.0 11.0 0.00 0.00 0.00 53 1018.9
20260505124818 57 28 0.0 0.0 0.00 0.00 0.00 44 1017.6
20260505124314 57 313 0.0 2.0 0.00 0.00 0.00 43 1017.9
20260505123810 57 96 0.0 0.0 0.00 0.00 0.00 43 1018.0
20260505123307 57 202 2.0 3.0 0.00 0.00 0.00 41 1017.9
20260505122803 57 250 1.0 2.0 0.00 0.00 0.00 41 1018.0
20260505122301 57 230 2.0 3.0 0.00 0.00 0.00 40 1017.9
20260505121757 57 238 1.0 3.0 0.00 0.00 0.00 39 1018.0
20260505121254 57 73 0.0 0.0 0.00 0.00 0.00 40 1018.0
20260505120750 57 48 0.0 0.0 0.00 0.00 0.00 39 1018.1
20260505120246 57 48 0.0 0.0 0.00 0.00 0.00 39 1017.7
20260505115744 57 135 0.0 0.0 0.00 0.00 0.00 38 1017.7
20260505115242 57 182 0.0 2.0 0.00 0.00 0.00 38 1017.7
20260505114739 57 353 0.0 2.0 0.00 0.00 0.00 38 1017.6
20260505114235 57 252 0.0 0.0 0.00 0.00 0.00 38 1017.5
20260505113732 57 250 0.0 3.0 0.00 0.00 0.00 37 1017.5
20260505113224 57 204 2.0 5.0 0.00 0.00 0.00 37 1017.5
20260505112720 57 208 0.0 0.0 0.00 0.00 0.00 37 1017.4
20260505112218 57 27 0.0 0.0 0.00 0.00 0.00 37 1017.5
20260505111717 57 13 0.0 0.0 0.00 0.00 0.00 37 1017.4
20260505111214 58 247 0.0 2.0 0.00 0.00 0.00 36 1017.6
20260505110709 58 273 0.0 2.0 0.00 0.00 0.00 35 1017.9
20260505110207 58 149 1.0 2.0 0.00 0.00 0.00 36 1017.7
20260505102143 58 200 1.0 3.0 0.00 0.00 0.00 35 1017.7
20260505101641 57 208 1.0 2.0 0.00 0.00 0.00 35 1017.7
20260505101137 57 208 0.0 0.0 0.00 0.00 0.00 36 1017.6
20260505100633 58 208 0.0 0.0 0.00 0.00 0.00 35 1017.7
20260505100130 58 208 0.0 0.0 0.00 0.00 0.00 35 1017.6
20260505095626 58 208 0.0 0.0 0.00 0.00 0.00 34 1017.5
20260505095124 58 273 0.0 2.0 0.00 0.00 0.00 34 1017.7
20260505094620 58 77 0.0 0.0 0.00 0.00 0.00 35 1017.5
20260505094116 58 68 0.0 0.0 0.00 0.00 0.00 35 1017.5
20260505093613 58 67 0.0 0.0 0.00 0.00 0.00 34 1017.5
20260505093110 59 63 0.0 0.0 0.00 0.00 0.00 34 1017.4
20260505092607 59 63 0.0 0.0 0.00 0.00 0.00 33 1017.5
20260505092106 59 37 0.0 3.0 0.00 0.00 0.00 32 1017.7
20260505091602 60 29 0.0 2.0 0.00 0.00 0.00 31 1017.7
20260505091101 60 20 2.0 2.0 0.00 0.00 0.00 31 1017.7
20260505090558 60 200 0.0 2.0 0.00 0.00 0.00 32 1017.7
20260505090056 60 194 1.0 5.0 0.00 0.00 0.00 32 1017.7
20260505085553 60 227 4.0 5.0 0.00 0.00 0.00 32 1017.9
20260505085051 60 318 2.0 5.0 0.00 0.00 0.00 32 1017.9
20260505084549 60 9 0.0 3.0 0.00 0.00 0.00 32 1018.0
20260505084047 60 332 3.0 5.0 0.00 0.00 0.00 32 1018.0
20260505083544 60 159 1.0 6.0 0.00 0.00 0.00 32 1018.4
20260505083040 60 288 1.0 3.0 0.00 0.00 0.00 32 1018.6
20260505082536 60 307 0.0 3.0 0.00 0.00 0.00 33 1018.4
20260505082033 61 191 1.0 3.0 0.00 0.00 0.00 32 1018.3
20260505081530 61 282 1.0 5.0 0.00 0.00 0.00 32 1018.3
20260505081027 61 354 0.0 6.0 0.00 0.00 0.00 32 1018.6
20260505080523 61 336 4.0 5.0 0.00 0.00 0.00 32 1018.3
20260505080020 61 251 2.0 3.0 0.00 0.00 0.00 32 1018.4
20260505075516 61 283 6.0 6.0 0.00 0.00 0.00 31 1018.4
20260505075013 61 349 0.0 2.0 0.00 0.00 0.00 32 1018.8
20260505074510 62 314 1.0 2.0 0.00 0.00 0.00 31 1018.7
20260505074007 62 329 2.0 5.0 0.00 0.00 0.00 31 1018.7
20260505073504 62 7 2.0 5.0 0.00 0.00 0.00 31 1018.6
20260505073003 62 341 5.0 8.0 0.00 0.00 0.00 31 1018.4
20260505072458 62 227 4.0 6.0 0.00 0.00 0.00 30 1018.4
20260505071954 62 278 6.0 11.0 0.00 0.00 0.00 30 1018.3
20260505071450 62 317 2.0 10.0 0.00 0.00 0.00 30 1018.1
20260505070948 62 214 3.0 5.0 0.00 0.00 0.00 29 1018.3
20260505070445 63 359 4.0 8.0 0.00 0.00 0.00 29 1018.0
20260505065940 63 264 3.0 8.0 0.00 0.00 0.00 29 1017.6
20260505065437 63 239 10.0 14.0 0.00 0.00 0.00 28 1017.7
20260505064934 63 237 11.0 13.0 0.00 0.00 0.00 28 1017.6
20260505064431 63 277 6.0 11.0 0.00 0.00 0.00 28 1017.9
20260505063929 63 219 2.0 6.0 0.00 0.00 0.00 28 1018.0
20260505063425 63 162 3.0 6.0 0.00 0.00 0.00 27 1017.9
20260505062922 64 0 2.0 8.0 0.00 0.00 0.00 27 1017.6
20260505062419 64 178 1.0 8.0 0.00 0.00 0.00 27 1017.7
20260505061916 64 293 7.0 8.0 0.00 0.00 0.00 26 1017.9
20260505061414 64 266 0.0 13.0 0.00 0.00 0.00 26 1017.7
20260505060911 64 225 8.0 13.0 0.00 0.00 0.00 26 1017.7
20260505060408 64 198 6.0 14.0 0.00 0.00 0.00 26 1017.7
20260505055904 64 256 6.0 8.0 0.00 0.00 0.00 26 1017.9
20260505055400 65 217 5.0 10.0 0.00 0.00 0.00 26 1017.9
20260505054857 65 255 3.0 8.0 0.00 0.00 0.00 25 1017.7
20260505054354 65 266 8.0 11.0 0.00 0.00 0.00 25 1017.6
20260505053853 65 236 4.0 6.0 0.00 0.00 0.00 25 1017.9
20260505053350 65 152 3.0 10.0 0.00 0.00 0.00 25 1017.5
20260505052846 65 324 4.0 10.0 0.00 0.00 0.00 25 1017.6
20260505052343 65 250 5.0 10.0 0.00 0.00 0.00 24 1017.3
20260505051840 66 254 8.0 10.0 0.00 0.00 0.00 24 1017.6
20260505051337 66 231 4.0 8.0 0.00 0.00 0.00 24 1017.5
20260505050836 66 169 3.0 5.0 0.00 0.00 0.00 24 1017.4
20260505050334 66 117 3.0 8.0 0.00 0.00 0.00 24 1017.5
20260505041301 67 194 1.0 2.0 0.00 0.00 0.00 25 1017.4
20260505040758 67 150 1.0 3.0 0.00 0.00 0.00 25 1017.1
20260505040256 67 219 2.0 3.0 0.00 0.00 0.00 24 1017.4
20260505035752 67 87 0.0 0.0 0.00 0.00 0.00 24 1017.5
20260505035248 67 48 0.0 3.0 0.00 0.00 0.00 24 1017.3
20260505034745 68 255 3.0 3.0 0.00 0.00 0.00 23 1017.3
20260505034242 68 10 0.0 2.0 0.00 0.00 0.00 24 1017.3
20260505033738 68 329 3.0 3.0 0.00 0.00 0.00 23 1017.3
20260505033236 68 311 0.0 5.0 0.00 0.00 0.00 23 1017.1
20260505032734 68 274 3.0 8.0 0.00 0.00 0.00 23 1017.1
20260505032230 68 19 1.0 5.0 0.00 0.00 0.00 23 1016.9
20260505031728 68 249 5.0 6.0 0.00 0.00 0.00 23 1016.8
20260505031224 69 247 1.0 5.0 0.00 0.00 0.00 22 1016.9
20260505030721 69 207 5.0 10.0 0.00 0.00 0.00 22 1016.7
20260505030217 69 350 3.0 8.0 0.00 0.00 0.00 22 1016.6
20260505025713 69 353 3.0 14.0 0.00 0.00 0.00 22 1016.7
20260505025211 69 322 4.0 8.0 0.00 0.00 0.00 21 1016.3
20260505024709 69 280 4.0 6.0 0.00 0.00 0.00 21 1016.4
20260505024206 70 239 6.0 10.0 0.00 0.00 0.00 21 1016.4
20260505023703 70 132 9.0 19.0 0.00 0.00 0.00 21 1016.4
20260505023200 70 264 7.0 10.0 0.00 0.00 0.00 21 1016.3
20260505022658 70 294 9.0 13.0 0.00 0.00 0.00 20 1016.3
20260505022154 70 76 8.0 14.0 0.00 0.00 0.00 20 1016.2
20260505021651 70 300 5.0 13.0 0.00 0.00 0.00 20 1016.6
20260505021148 71 176 5.0 16.0 0.00 0.00 0.00 20 1016.2
20260505020643 71 210 6.0 10.0 0.00 0.00 0.00 20 1016.1
20260505020139 71 273 5.0 10.0 0.00 0.00 0.00 20 1016.0
20260505015637 71 288 6.0 10.0 0.00 0.00 0.00 20 1016.0
20260505015133 71 210 4.0 11.0 0.00 0.00 0.00 20 1016.1
20260505014630 71 243 4.0 10.0 0.00 0.00 0.00 20 1015.7
20260505014127 71 271 5.0 8.0 0.00 0.00 0.00 20 1015.8
20260505013625 71 31 6.0 16.0 0.00 0.00 0.00 20 1015.6
20260505013122 72 354 7.0 16.0 0.00 0.00 0.00 20 1015.6
20260505012620 72 280 7.0 11.0 0.00 0.00 0.00 20 1015.6
20260505012116 72 301 4.0 5.0 0.00 0.00 0.00 20 1015.6
20260505011612 72 294 4.0 13.0 0.00 0.00 0.00 20 1015.5
20260505011110 72 252 6.0 8.0 0.00 0.00 0.00 19 1015.5
20260505010605 72 173 2.0 6.0 0.00 0.00 0.00 19 1015.6
20260505005558 72 249 3.0 8.0 0.00 0.00 0.00 19 1015.6
20260505005055 72 336 10.0 13.0 0.00 0.00 0.00 18 1015.5
20260505004552 72 258 6.0 13.0 0.00 0.00 0.00 18 1015.3
20260505004049 73 277 8.0 13.0 0.00 0.00 0.00 18 1015.5
20260505003546 73 304 6.0 18.0 0.00 0.00 0.00 18 1015.6
20260505003043 73 167 11.0 13.0 0.00 0.00 0.00 17 1015.6
20260505002538 73 278 8.0 13.0 0.00 0.00 0.00 17 1015.8
20260505002037 73 272 8.0 14.0 0.00 0.00 0.00 17 1015.8
20260505001534 73 243 11.0 14.0 0.00 0.00 0.00 17 1015.8
20260505001031 73 304 13.0 18.0 0.00 0.00 0.00 17 1015.8
20260505000529 73 217 9.0 11.0 0.00 0.00 0.00 16 1015.7
20260505000026 73 237 3.0 11.0 0.00 0.00 0.00 16 1015.7
20260504235523 73 280 4.0 13.0 0.00 0.00 0.00 16 1015.7
20260504235019 73 272 6.0 14.0 0.00 0.00 0.00 16 1016.0
20260504234517 73 244 8.0 16.0 0.00 0.00 0.00 15 1016.1
20260504234014 73 285 8.0 11.0 0.00 0.00 0.00 15 1015.8
20260504233509 73 268 6.0 11.0 0.00 0.00 0.00 15 1016.1
20260504233006 73 233 10.0 18.0 0.00 0.00 0.00 15 1015.8
20260504232503 74 158 4.0 13.0 0.00 0.00 0.00 15 1015.8
20260504232001 74 279 5.0 19.0 0.00 0.00 0.00 15 1015.7
20260504231456 74 300 9.0 14.0 0.00 0.00 0.00 14 1015.8
20260504230953 74 179 7.0 22.0 0.00 0.00 0.00 14 1016.0
20260504230450 74 218 7.0 18.0 0.00 0.00 0.00 14 1015.8
20260504225949 74 224 13.0 22.0 0.00 0.00 0.00 14 1016.0
20260504225445 75 266 10.0 18.0 0.00 0.00 0.00 14 1016.0
20260504224942 75 231 8.0 19.0 0.00 0.00 0.00 14 1016.0
20260504224438 74 261 9.0 16.0 0.00 0.00 0.00 14 1016.0